Regional Weather Roundup
Issued by NWS

Home | Current Version | Previous Version | Text Only | Print | Product List | Glossary On
Versions: 1 2 3 4 5 6 7 8 9 10 11 12 13 14 15 16 17 18 19 20 21 22 23 24 25 26 27 28 29 30 31 32 33 34 35 36 37 38 39 40 41 42 43 44 45 46 47 48 49 50
000
ASUS44 KOUN 230410
RWROK

WEATHER ROUNDUP FOR OKLAHOMA
NATIONAL WEATHER SERVICE NORMAN OK
1100 PM CDT SUN APR 22 2018

NOTE: "FAIR" INDICATES FEW OR NO CLOUDS BELOW 12,000 FEET WITH NO
      SIGNIFICANT WEATHER AND/OR OBSTRUCTIONS TO VISIBILITY.

OKZ001>007-009>012-014-015-017-230500-
NORTHWEST OKLAHOMA AND THE PANHANDLE

CITY           SKY/WX    TMP DP  RH WIND       PRES   REMARKS
GAGE           CLOUDY    55  43  63 E10       30.14R
GUYMON         CLEAR     47  40  76 CALM      30.17R
ENID/WOODRING  CLOUDY    54  48  82 N8        30.09S
$$

OKZ016-021>023-033>039-044-045-230500-
SOUTHWEST OKLAHOMA

CITY           SKY/WX    TMP DP  RH WIND       PRES   REMARKS
LAWTON/REGL    PTCLDY    55  47  74 N12       30.09R
LAWTON/FT SILL MOCLDY    53  49  85 N9        30.08R
FREDERICK      PTCLDY    54  43  66 NW7       30.05S
CLINTON        PTCLDY    52  45  77 NE9       30.13R
HOBART         CLEAR     53  47  79 E10       30.12R
ALTUS AFB      PTCLDY    55  41  59 N9        30.08S
$$

OKZ018>020-024>031-230500-
CENTRAL OKLAHOMA

CITY           SKY/WX    TMP DP  RH WIND       PRES   REMARKS
OKLAHOMA CITY  CLOUDY    53  47  79 N16G22    30.08R
OKC/WILEY POST CLOUDY    54  48  80 N12       30.09S
OKC/TINKER AFB CLOUDY    52  47  84 N10G18    30.07R
STILLWATER     CLOUDY    54  48  80 N8        30.08R
GUTHRIE        CLOUDY    54  48  80 N6        30.09R
$$

OKZ008-013-054>072-230500-
NORTHEAST OKLAHOMA

CITY           SKY/WX    TMP DP  RH WIND       PRES   REMARKS
TULSA          CLOUDY    54  53  97 N10       30.02F
TULSA/JONES    CLOUDY    55  50  83 NW7       30.04S
PONCA CITY     PTCLDY    51  48  89 N7        30.09S
BARTLESVILLE   CLOUDY    54  51  90 CALM      30.06F
MUSKOGEE       CLOUDY    53  53 100 NW12      30.02R
$$

OKZ032-040>043-046>053-073>077-230500-
SOUTH CENTRAL/SOUTHEAST OKLAHOMA

CITY           SKY/WX    TMP DP  RH WIND       PRES   REMARKS
ARDMORE/DWNTWN PTCLDY    55  45  67 N6        30.06S
MCALESTER      CLOUDY    53  49  86 NW8       30.03S
$$





USA.gov is the U.S. government's official web portal to all federal, state and local government web resources and services.